Index of /20260503/WXO-DD/model_rdps/10km/06/030
Name Last modified Size Description
Parent Directory -
20260503T06Z_MSC_RDPS_AbsoluteVorticity_IsbL-0250_RLatLon0.09_PT030H.grib2 2026-05-03 08:52 619K
20260503T06Z_MSC_RDPS_AbsoluteVorticity_IsbL-0500_RLatLon0.09_PT030H.grib2 2026-05-03 08:52 580K
20260503T06Z_MSC_RDPS_AbsoluteVorticity_IsbL-0700_RLatLon0.09_PT030H.grib2 2026-05-03 08:52 622K
20260503T06Z_MSC_RDPS_AbsoluteVorticity_IsbL-0850_RLatLon0.09_PT030H.grib2 2026-05-03 08:52 803K
20260503T06Z_MSC_RDPS_AirTemp_AGL-120m_RLatLon0.09_PT030H.grib2 2026-05-03 08:52 383K
20260503T06Z_MSC_RDPS_AirTemp_AGL-2m_RLatLon0.09_PT030H.grib2 2026-05-03 08:52 632K
20260503T06Z_MSC_RDPS_AirTemp_AGL-40m_RLatLon0.09_PT030H.grib2 2026-05-03 08:52 399K
20260503T06Z_MSC_RDPS_AirTemp_AGL-80m_RLatLon0.09_PT030H.grib2 2026-05-03 08:52 390K
20260503T06Z_MSC_RDPS_AirTemp_IsbL-0001_RLatLon0.09_PT030H.grib2 2026-05-03 08:52 309K
20260503T06Z_MSC_RDPS_AirTemp_IsbL-0005_RLatLon0.09_PT030H.grib2 2026-05-03 08:52 288K
20260503T06Z_MSC_RDPS_AirTemp_IsbL-0010_RLatLon0.09_PT030H.grib2 2026-05-03 08:52 391K
20260503T06Z_MSC_RDPS_AirTemp_IsbL-0020_RLatLon0.09_PT030H.grib2 2026-05-03 08:52 416K
20260503T06Z_MSC_RDPS_AirTemp_IsbL-0030_RLatLon0.09_PT030H.grib2 2026-05-03 08:52 339K
20260503T06Z_MSC_RDPS_AirTemp_IsbL-0050_RLatLon0.09_PT030H.grib2 2026-05-03 08:52 319K
20260503T06Z_MSC_RDPS_AirTemp_IsbL-0100_RLatLon0.09_PT030H.grib2 2026-05-03 08:52 432K
20260503T06Z_MSC_RDPS_AirTemp_IsbL-0150_RLatLon0.09_PT030H.grib2 2026-05-03 08:52 423K
20260503T06Z_MSC_RDPS_AirTemp_IsbL-0175_RLatLon0.09_PT030H.grib2 2026-05-03 08:52 413K
20260503T06Z_MSC_RDPS_AirTemp_IsbL-0200_RLatLon0.09_PT030H.grib2 2026-05-03 08:52 417K
20260503T06Z_MSC_RDPS_AirTemp_IsbL-0225_RLatLon0.09_PT030H.grib2 2026-05-03 08:52 423K
20260503T06Z_MSC_RDPS_AirTemp_IsbL-0250_RLatLon0.09_PT030H.grib2 2026-05-03 08:52 429K
20260503T06Z_MSC_RDPS_AirTemp_IsbL-0275_RLatLon0.09_PT030H.grib2 2026-05-03 08:52 410K
20260503T06Z_MSC_RDPS_AirTemp_IsbL-0300_RLatLon0.09_PT030H.grib2 2026-05-03 08:52 414K
20260503T06Z_MSC_RDPS_AirTemp_IsbL-0350_RLatLon0.09_PT030H.grib2 2026-05-03 08:52 430K
20260503T06Z_MSC_RDPS_AirTemp_IsbL-0400_RLatLon0.09_PT030H.grib2 2026-05-03 08:52 435K
20260503T06Z_MSC_RDPS_AirTemp_IsbL-0450_RLatLon0.09_PT030H.grib2 2026-05-03 08:52 442K
20260503T06Z_MSC_RDPS_AirTemp_IsbL-0500_RLatLon0.09_PT030H.grib2 2026-05-03 08:52 454K
20260503T06Z_MSC_RDPS_AirTemp_IsbL-0550_RLatLon0.09_PT030H.grib2 2026-05-03 08:52 471K
20260503T06Z_MSC_RDPS_AirTemp_IsbL-0600_RLatLon0.09_PT030H.grib2 2026-05-03 08:52 450K
20260503T06Z_MSC_RDPS_AirTemp_IsbL-0650_RLatLon0.09_PT030H.grib2 2026-05-03 08:52 465K
20260503T06Z_MSC_RDPS_AirTemp_IsbL-0700_RLatLon0.09_PT030H.grib2 2026-05-03 08:52 489K
20260503T06Z_MSC_RDPS_AirTemp_IsbL-0750_RLatLon0.09_PT030H.grib2 2026-05-03 08:52 530K
20260503T06Z_MSC_RDPS_AirTemp_IsbL-0800_RLatLon0.09_PT030H.grib2 2026-05-03 08:52 589K
20260503T06Z_MSC_RDPS_AirTemp_IsbL-0850_RLatLon0.09_PT030H.grib2 2026-05-03 08:52 650K
20260503T06Z_MSC_RDPS_AirTemp_IsbL-0875_RLatLon0.09_PT030H.grib2 2026-05-03 08:52 667K
20260503T06Z_MSC_RDPS_AirTemp_IsbL-0900_RLatLon0.09_PT030H.grib2 2026-05-03 08:52 672K
20260503T06Z_MSC_RDPS_AirTemp_IsbL-0925_RLatLon0.09_PT030H.grib2 2026-05-03 08:52 664K
20260503T06Z_MSC_RDPS_AirTemp_IsbL-0950_RLatLon0.09_PT030H.grib2 2026-05-03 08:52 664K
20260503T06Z_MSC_RDPS_AirTemp_IsbL-0970_RLatLon0.09_PT030H.grib2 2026-05-03 08:52 524K
20260503T06Z_MSC_RDPS_AirTemp_IsbL-0985_RLatLon0.09_PT030H.grib2 2026-05-03 08:52 512K
20260503T06Z_MSC_RDPS_AirTemp_IsbL-1000_RLatLon0.09_PT030H.grib2 2026-05-03 08:52 499K
20260503T06Z_MSC_RDPS_AirTemp_IsbL-1015_RLatLon0.09_PT030H.grib2 2026-05-03 08:52 501K
20260503T06Z_MSC_RDPS_Albedo_Sfc_RLatLon0.09_PT030H.grib2 2026-05-03 08:52 151K
20260503T06Z_MSC_RDPS_CAPE_Sfc_RLatLon0.09_PT030H.grib2 2026-05-03 08:52 1.6M
20260503T06Z_MSC_RDPS_CIN_Sfc_RLatLon0.09_PT030H.grib2 2026-05-03 08:52 1.1M
20260503T06Z_MSC_RDPS_CloudWater_EAtm_RLatLon0.09_PT030H.grib2 2026-05-03 08:52 222K
20260503T06Z_MSC_RDPS_ConvectivePrecip-Accum_Sfc_RLatLon0.09_PT030H.grib2 2026-05-03 08:52 961K
20260503T06Z_MSC_RDPS_DewPointDepression_AGL-2m_RLatLon0.09_PT030H.grib2 2026-05-03 08:52 405K
20260503T06Z_MSC_RDPS_DewPointDepression_IsbL-0001_RLatLon0.09_PT030H.grib2 2026-05-03 08:52 193
20260503T06Z_MSC_RDPS_DewPointDepression_IsbL-0005_RLatLon0.09_PT030H.grib2 2026-05-03 08:52 193
20260503T06Z_MSC_RDPS_DewPointDepression_IsbL-0010_RLatLon0.09_PT030H.grib2 2026-05-03 08:52 193
20260503T06Z_MSC_RDPS_DewPointDepression_IsbL-0020_RLatLon0.09_PT030H.grib2 2026-05-03 08:52 193
20260503T06Z_MSC_RDPS_DewPointDepression_IsbL-0030_RLatLon0.09_PT030H.grib2 2026-05-03 08:52 193
20260503T06Z_MSC_RDPS_DewPointDepression_IsbL-0050_RLatLon0.09_PT030H.grib2 2026-05-03 08:52 78K
20260503T06Z_MSC_RDPS_DewPointDepression_IsbL-0100_RLatLon0.09_PT030H.grib2 2026-05-03 08:52 120K
20260503T06Z_MSC_RDPS_DewPointDepression_IsbL-0150_RLatLon0.09_PT030H.grib2 2026-05-03 08:52 142K
20260503T06Z_MSC_RDPS_DewPointDepression_IsbL-0175_RLatLon0.09_PT030H.grib2 2026-05-03 08:52 176K
20260503T06Z_MSC_RDPS_DewPointDepression_IsbL-0200_RLatLon0.09_PT030H.grib2 2026-05-03 08:52 217K
20260503T06Z_MSC_RDPS_DewPointDepression_IsbL-0225_RLatLon0.09_PT030H.grib2 2026-05-03 08:52 263K
20260503T06Z_MSC_RDPS_DewPointDepression_IsbL-0250_RLatLon0.09_PT030H.grib2 2026-05-03 08:52 302K
20260503T06Z_MSC_RDPS_DewPointDepression_IsbL-0275_RLatLon0.09_PT030H.grib2 2026-05-03 08:52 311K
20260503T06Z_MSC_RDPS_DewPointDepression_IsbL-0300_RLatLon0.09_PT030H.grib2 2026-05-03 08:52 329K
20260503T06Z_MSC_RDPS_DewPointDepression_IsbL-0350_RLatLon0.09_PT030H.grib2 2026-05-03 08:52 338K
20260503T06Z_MSC_RDPS_DewPointDepression_IsbL-0400_RLatLon0.09_PT030H.grib2 2026-05-03 08:52 344K
20260503T06Z_MSC_RDPS_DewPointDepression_IsbL-0450_RLatLon0.09_PT030H.grib2 2026-05-03 08:52 346K
20260503T06Z_MSC_RDPS_DewPointDepression_IsbL-0500_RLatLon0.09_PT030H.grib2 2026-05-03 08:52 350K
20260503T06Z_MSC_RDPS_DewPointDepression_IsbL-0550_RLatLon0.09_PT030H.grib2 2026-05-03 08:52 357K
20260503T06Z_MSC_RDPS_DewPointDepression_IsbL-0600_RLatLon0.09_PT030H.grib2 2026-05-03 08:52 371K
20260503T06Z_MSC_RDPS_DewPointDepression_IsbL-0650_RLatLon0.09_PT030H.grib2 2026-05-03 08:52 379K
20260503T06Z_MSC_RDPS_DewPointDepression_IsbL-0700_RLatLon0.09_PT030H.grib2 2026-05-03 08:52 387K
20260503T06Z_MSC_RDPS_DewPointDepression_IsbL-0750_RLatLon0.09_PT030H.grib2 2026-05-03 08:52 406K
20260503T06Z_MSC_RDPS_DewPointDepression_IsbL-0800_RLatLon0.09_PT030H.grib2 2026-05-03 08:52 447K
20260503T06Z_MSC_RDPS_DewPointDepression_IsbL-0850_RLatLon0.09_PT030H.grib2 2026-05-03 08:52 479K
20260503T06Z_MSC_RDPS_DewPointDepression_IsbL-0875_RLatLon0.09_PT030H.grib2 2026-05-03 08:52 475K
20260503T06Z_MSC_RDPS_DewPointDepression_IsbL-0900_RLatLon0.09_PT030H.grib2 2026-05-03 08:52 461K
20260503T06Z_MSC_RDPS_DewPointDepression_IsbL-0925_RLatLon0.09_PT030H.grib2 2026-05-03 08:52 446K
20260503T06Z_MSC_RDPS_DewPointDepression_IsbL-0950_RLatLon0.09_PT030H.grib2 2026-05-03 08:52 443K
20260503T06Z_MSC_RDPS_DewPointDepression_IsbL-0970_RLatLon0.09_PT030H.grib2 2026-05-03 08:52 439K
20260503T06Z_MSC_RDPS_DewPointDepression_IsbL-0985_RLatLon0.09_PT030H.grib2 2026-05-03 08:52 435K
20260503T06Z_MSC_RDPS_DewPointDepression_IsbL-1000_RLatLon0.09_PT030H.grib2 2026-05-03 08:52 433K
20260503T06Z_MSC_RDPS_DewPointDepression_IsbL-1015_RLatLon0.09_PT030H.grib2 2026-05-03 08:52 425K
20260503T06Z_MSC_RDPS_DewPoint_AGL-2m_RLatLon0.09_PT030H.grib2 2026-05-03 08:52 312K
20260503T06Z_MSC_RDPS_DownwardLongwaveRadiationFlux-Accum_Sfc_RLatLon0.09_PT030H.grib2 2026-05-03 08:52 478K
20260503T06Z_MSC_RDPS_DownwardShortwaveRadiationFlux-Accum_NTAtm_RLatLon0.09_PT030H.grib2 2026-05-03 08:52 103K
20260503T06Z_MSC_RDPS_DownwardShortwaveRadiationFlux-Accum_Sfc_RLatLon0.09_PT030H.grib2 2026-05-03 08:52 660K
20260503T06Z_MSC_RDPS_FreezingRain-Accum12h_Sfc_RLatLon0.09_PT030H.grib2 2026-05-03 08:52 80K
20260503T06Z_MSC_RDPS_FreezingRain-Accum1h_Sfc_RLatLon0.09_PT030H.grib2 2026-05-03 08:52 41K
20260503T06Z_MSC_RDPS_FreezingRain-Accum24h_Sfc_RLatLon0.09_PT030H.grib2 2026-05-03 08:52 97K
20260503T06Z_MSC_RDPS_FreezingRain-Accum3h_Sfc_RLatLon0.09_PT030H.grib2 2026-05-03 08:52 53K
20260503T06Z_MSC_RDPS_FreezingRain-Accum6h_Sfc_RLatLon0.09_PT030H.grib2 2026-05-03 08:52 67K
20260503T06Z_MSC_RDPS_FreezingRain-Accum_Sfc_RLatLon0.09_PT030H.grib2 2026-05-03 08:52 133K
20260503T06Z_MSC_RDPS_GeopotentialHeight_IsbL-0001_RLatLon0.09_PT030H.grib2 2026-05-03 08:52 350K
20260503T06Z_MSC_RDPS_GeopotentialHeight_IsbL-0005_RLatLon0.09_PT030H.grib2 2026-05-03 08:52 311K
20260503T06Z_MSC_RDPS_GeopotentialHeight_IsbL-0010_RLatLon0.09_PT030H.grib2 2026-05-03 08:52 312K
20260503T06Z_MSC_RDPS_GeopotentialHeight_IsbL-0020_RLatLon0.09_PT030H.grib2 2026-05-03 08:52 410K
20260503T06Z_MSC_RDPS_GeopotentialHeight_IsbL-0030_RLatLon0.09_PT030H.grib2 2026-05-03 08:52 413K
20260503T06Z_MSC_RDPS_GeopotentialHeight_IsbL-0050_RLatLon0.09_PT030H.grib2 2026-05-03 08:52 317K
20260503T06Z_MSC_RDPS_GeopotentialHeight_IsbL-0100_RLatLon0.09_PT030H.grib2 2026-05-03 08:52 293K
20260503T06Z_MSC_RDPS_GeopotentialHeight_IsbL-0150_RLatLon0.09_PT030H.grib2 2026-05-03 08:52 233K
20260503T06Z_MSC_RDPS_GeopotentialHeight_IsbL-0175_RLatLon0.09_PT030H.grib2 2026-05-03 08:52 236K
20260503T06Z_MSC_RDPS_GeopotentialHeight_IsbL-0200_RLatLon0.09_PT030H.grib2 2026-05-03 08:52 239K
20260503T06Z_MSC_RDPS_GeopotentialHeight_IsbL-0225_RLatLon0.09_PT030H.grib2 2026-05-03 08:52 240K
20260503T06Z_MSC_RDPS_GeopotentialHeight_IsbL-0250_RLatLon0.09_PT030H.grib2 2026-05-03 08:52 241K
20260503T06Z_MSC_RDPS_GeopotentialHeight_IsbL-0275_RLatLon0.09_PT030H.grib2 2026-05-03 08:52 240K
20260503T06Z_MSC_RDPS_GeopotentialHeight_IsbL-0300_RLatLon0.09_PT030H.grib2 2026-05-03 08:52 240K
20260503T06Z_MSC_RDPS_GeopotentialHeight_IsbL-0350_RLatLon0.09_PT030H.grib2 2026-05-03 08:52 236K
20260503T06Z_MSC_RDPS_GeopotentialHeight_IsbL-0400_RLatLon0.09_PT030H.grib2 2026-05-03 08:52 307K
20260503T06Z_MSC_RDPS_GeopotentialHeight_IsbL-0450_RLatLon0.09_PT030H.grib2 2026-05-03 08:52 302K
20260503T06Z_MSC_RDPS_GeopotentialHeight_IsbL-0500_RLatLon0.09_PT030H.grib2 2026-05-03 08:52 297K
20260503T06Z_MSC_RDPS_GeopotentialHeight_IsbL-0550_RLatLon0.09_PT030H.grib2 2026-05-03 08:52 294K
20260503T06Z_MSC_RDPS_GeopotentialHeight_IsbL-0600_RLatLon0.09_PT030H.grib2 2026-05-03 08:52 290K
20260503T06Z_MSC_RDPS_GeopotentialHeight_IsbL-0650_RLatLon0.09_PT030H.grib2 2026-05-03 08:52 260K
20260503T06Z_MSC_RDPS_GeopotentialHeight_IsbL-0700_RLatLon0.09_PT030H.grib2 2026-05-03 08:52 258K
20260503T06Z_MSC_RDPS_GeopotentialHeight_IsbL-0750_RLatLon0.09_PT030H.grib2 2026-05-03 08:52 345K
20260503T06Z_MSC_RDPS_GeopotentialHeight_IsbL-0800_RLatLon0.09_PT030H.grib2 2026-05-03 08:52 354K
20260503T06Z_MSC_RDPS_GeopotentialHeight_IsbL-0850_RLatLon0.09_PT030H.grib2 2026-05-03 08:52 365K
20260503T06Z_MSC_RDPS_GeopotentialHeight_IsbL-0875_RLatLon0.09_PT030H.grib2 2026-05-03 08:52 368K
20260503T06Z_MSC_RDPS_GeopotentialHeight_IsbL-0900_RLatLon0.09_PT030H.grib2 2026-05-03 08:52 370K
20260503T06Z_MSC_RDPS_GeopotentialHeight_IsbL-0925_RLatLon0.09_PT030H.grib2 2026-05-03 08:52 371K
20260503T06Z_MSC_RDPS_GeopotentialHeight_IsbL-0950_RLatLon0.09_PT030H.grib2 2026-05-03 08:52 376K
20260503T06Z_MSC_RDPS_GeopotentialHeight_IsbL-0970_RLatLon0.09_PT030H.grib2 2026-05-03 08:52 381K
20260503T06Z_MSC_RDPS_GeopotentialHeight_IsbL-0985_RLatLon0.09_PT030H.grib2 2026-05-03 08:52 298K
20260503T06Z_MSC_RDPS_GeopotentialHeight_IsbL-1000_RLatLon0.09_PT030H.grib2 2026-05-03 08:52 308K
20260503T06Z_MSC_RDPS_GeopotentialHeight_IsbL-1015_RLatLon0.09_PT030H.grib2 2026-05-03 08:52 320K
20260503T06Z_MSC_RDPS_Humidex_Sfc_RLatLon0.09_PT030H.grib2 2026-05-03 08:52 2.4M
20260503T06Z_MSC_RDPS_IcePellets-Accum12h_Sfc_RLatLon0.09_PT030H.grib2 2026-05-03 08:52 7.4K
20260503T06Z_MSC_RDPS_IcePellets-Accum1h_Sfc_RLatLon0.09_PT030H.grib2 2026-05-03 08:52 4.3K
20260503T06Z_MSC_RDPS_IcePellets-Accum24h_Sfc_RLatLon0.09_PT030H.grib2 2026-05-03 08:52 10K
20260503T06Z_MSC_RDPS_IcePellets-Accum3h_Sfc_RLatLon0.09_PT030H.grib2 2026-05-03 08:52 4.9K
20260503T06Z_MSC_RDPS_IcePellets-Accum6h_Sfc_RLatLon0.09_PT030H.grib2 2026-05-03 08:52 6.1K
20260503T06Z_MSC_RDPS_IcePellets-Accum_Sfc_RLatLon0.09_PT030H.grib2 2026-05-03 08:52 12K
20260503T06Z_MSC_RDPS_KIndex_Sfc_RLatLon0.09_PT030H.grib2 2026-05-03 08:52 2.5M
20260503T06Z_MSC_RDPS_LatentHeatNetFlux_Sfc_RLatLon0.09_PT030H.grib2 2026-05-03 08:52 439K
20260503T06Z_MSC_RDPS_LiftedIndex-MU-VT_IsbL-0500_RLatLon0.09_PT030H.grib2 2026-05-03 08:52 2.4M
20260503T06Z_MSC_RDPS_NetLongwaveRadiationFlux-Accum_Sfc_RLatLon0.09_PT030H.grib2 2026-05-03 08:52 620K
20260503T06Z_MSC_RDPS_NetShortwaveRadiationFlux-Accum_Sfc_RLatLon0.09_PT030H.grib2 2026-05-03 08:52 658K
20260503T06Z_MSC_RDPS_PlanetaryBoundaryLayerHeight_Sfc_RLatLon0.09_PT030H.grib2 2026-05-03 08:52 1.1M
20260503T06Z_MSC_RDPS_Precip-Accum12h_Sfc_RLatLon0.09_PT030H.grib2 2026-05-03 08:52 1.6M
20260503T06Z_MSC_RDPS_Precip-Accum1h_Sfc_RLatLon0.09_PT030H.grib2 2026-05-03 08:52 1.4M
20260503T06Z_MSC_RDPS_Precip-Accum24h_Sfc_RLatLon0.09_PT030H.grib2 2026-05-03 08:52 1.9M
20260503T06Z_MSC_RDPS_Precip-Accum3h_Sfc_RLatLon0.09_PT030H.grib2 2026-05-03 08:52 1.5M
20260503T06Z_MSC_RDPS_Precip-Accum6h_Sfc_RLatLon0.09_PT030H.grib2 2026-05-03 08:52 1.6M
20260503T06Z_MSC_RDPS_Precip-Accum_Sfc_RLatLon0.09_PT030H.grib2 2026-05-03 08:52 1.9M
20260503T06Z_MSC_RDPS_PrecipRate_Sfc_RLatLon0.09_PT030H.grib2 2026-05-03 08:52 202K
20260503T06Z_MSC_RDPS_PrecipType-Instant_Sfc_RLatLon0.09_PT030H.grib2 2026-05-03 08:52 628K
20260503T06Z_MSC_RDPS_Pressure-Trend3h_Sfc_RLatLon0.09_PT030H.grib2 2026-05-03 08:52 1.2M
20260503T06Z_MSC_RDPS_Pressure_MSL_RLatLon0.09_PT030H.grib2 2026-05-03 08:52 330K
20260503T06Z_MSC_RDPS_Pressure_PVU-1.5_RLatLon0.09_PT030H.grib2 2026-05-03 08:52 2.3M
20260503T06Z_MSC_RDPS_Pressure_PVU-1_RLatLon0.09_PT030H.grib2 2026-05-03 08:52 2.4M
20260503T06Z_MSC_RDPS_Pressure_PVU-2_RLatLon0.09_PT030H.grib2 2026-05-03 08:52 2.4M
20260503T06Z_MSC_RDPS_Pressure_Sfc_RLatLon0.09_PT030H.grib2 2026-05-03 08:52 500K
20260503T06Z_MSC_RDPS_RadiativeTemp_Sfc_RLatLon0.09_PT030H.grib2 2026-05-03 08:52 303K
20260503T06Z_MSC_RDPS_Rain-Accum12h_Sfc_RLatLon0.09_PT030H.grib2 2026-05-03 08:52 1.2M
20260503T06Z_MSC_RDPS_Rain-Accum1h_Sfc_RLatLon0.09_PT030H.grib2 2026-05-03 08:52 776K
20260503T06Z_MSC_RDPS_Rain-Accum24h_Sfc_RLatLon0.09_PT030H.grib2 2026-05-03 08:52 1.4M
20260503T06Z_MSC_RDPS_Rain-Accum3h_Sfc_RLatLon0.09_PT030H.grib2 2026-05-03 08:52 804K
20260503T06Z_MSC_RDPS_Rain-Accum6h_Sfc_RLatLon0.09_PT030H.grib2 2026-05-03 08:52 1.0M
20260503T06Z_MSC_RDPS_Rain-Accum_Sfc_RLatLon0.09_PT030H.grib2 2026-05-03 08:52 1.5M
20260503T06Z_MSC_RDPS_RelativeHumidity_AGL-2m_RLatLon0.09_PT030H.grib2 2026-05-03 08:52 1.0M
20260503T06Z_MSC_RDPS_RelativeHumidity_IsbL-0010_RLatLon0.09_PT030H.grib2 2026-05-03 08:52 532K
20260503T06Z_MSC_RDPS_RelativeHumidity_IsbL-0020_RLatLon0.09_PT030H.grib2 2026-05-03 08:52 676K
20260503T06Z_MSC_RDPS_RelativeHumidity_IsbL-0030_RLatLon0.09_PT030H.grib2 2026-05-03 08:52 605K
20260503T06Z_MSC_RDPS_RelativeHumidity_IsbL-0050_RLatLon0.09_PT030H.grib2 2026-05-03 08:52 363K
20260503T06Z_MSC_RDPS_RelativeHumidity_IsbL-0100_RLatLon0.09_PT030H.grib2 2026-05-03 08:52 284K
20260503T06Z_MSC_RDPS_RelativeHumidity_IsbL-0150_RLatLon0.09_PT030H.grib2 2026-05-03 08:52 410K
20260503T06Z_MSC_RDPS_RelativeHumidity_IsbL-0175_RLatLon0.09_PT030H.grib2 2026-05-03 08:52 472K
20260503T06Z_MSC_RDPS_RelativeHumidity_IsbL-0200_RLatLon0.09_PT030H.grib2 2026-05-03 08:52 553K
20260503T06Z_MSC_RDPS_RelativeHumidity_IsbL-0225_RLatLon0.09_PT030H.grib2 2026-05-03 08:52 628K
20260503T06Z_MSC_RDPS_RelativeHumidity_IsbL-0250_RLatLon0.09_PT030H.grib2 2026-05-03 08:52 698K
20260503T06Z_MSC_RDPS_RelativeHumidity_IsbL-0275_RLatLon0.09_PT030H.grib2 2026-05-03 08:52 725K
20260503T06Z_MSC_RDPS_RelativeHumidity_IsbL-0300_RLatLon0.09_PT030H.grib2 2026-05-03 08:52 763K
20260503T06Z_MSC_RDPS_RelativeHumidity_IsbL-0350_RLatLon0.09_PT030H.grib2 2026-05-03 08:52 789K
20260503T06Z_MSC_RDPS_RelativeHumidity_IsbL-0400_RLatLon0.09_PT030H.grib2 2026-05-03 08:52 796K
20260503T06Z_MSC_RDPS_RelativeHumidity_IsbL-0450_RLatLon0.09_PT030H.grib2 2026-05-03 08:52 796K
20260503T06Z_MSC_RDPS_RelativeHumidity_IsbL-0500_RLatLon0.09_PT030H.grib2 2026-05-03 08:52 801K
20260503T06Z_MSC_RDPS_RelativeHumidity_IsbL-0550_RLatLon0.09_PT030H.grib2 2026-05-03 08:52 817K
20260503T06Z_MSC_RDPS_RelativeHumidity_IsbL-0600_RLatLon0.09_PT030H.grib2 2026-05-03 08:52 837K
20260503T06Z_MSC_RDPS_RelativeHumidity_IsbL-0650_RLatLon0.09_PT030H.grib2 2026-05-03 08:52 852K
20260503T06Z_MSC_RDPS_RelativeHumidity_IsbL-0700_RLatLon0.09_PT030H.grib2 2026-05-03 08:52 873K
20260503T06Z_MSC_RDPS_RelativeHumidity_IsbL-0750_RLatLon0.09_PT030H.grib2 2026-05-03 08:52 921K
20260503T06Z_MSC_RDPS_RelativeHumidity_IsbL-0800_RLatLon0.09_PT030H.grib2 2026-05-03 08:52 1.0M
20260503T06Z_MSC_RDPS_RelativeHumidity_IsbL-0850_RLatLon0.09_PT030H.grib2 2026-05-03 08:52 1.1M
20260503T06Z_MSC_RDPS_RelativeHumidity_IsbL-0875_RLatLon0.09_PT030H.grib2 2026-05-03 08:52 1.1M
20260503T06Z_MSC_RDPS_RelativeHumidity_IsbL-0900_RLatLon0.09_PT030H.grib2 2026-05-03 08:52 1.1M
20260503T06Z_MSC_RDPS_RelativeHumidity_IsbL-0925_RLatLon0.09_PT030H.grib2 2026-05-03 08:52 1.1M
20260503T06Z_MSC_RDPS_RelativeHumidity_IsbL-0950_RLatLon0.09_PT030H.grib2 2026-05-03 08:52 1.1M
20260503T06Z_MSC_RDPS_RelativeHumidity_IsbL-0970_RLatLon0.09_PT030H.grib2 2026-05-03 08:52 1.1M
20260503T06Z_MSC_RDPS_RelativeHumidity_IsbL-0985_RLatLon0.09_PT030H.grib2 2026-05-03 08:52 1.0M
20260503T06Z_MSC_RDPS_RelativeHumidity_IsbL-1000_RLatLon0.09_PT030H.grib2 2026-05-03 08:52 1.0M
20260503T06Z_MSC_RDPS_RelativeHumidity_IsbL-1015_RLatLon0.09_PT030H.grib2 2026-05-03 08:52 1.0M
20260503T06Z_MSC_RDPS_Runoff-Accum_Sfc_RLatLon0.09_PT030H.grib2 2026-05-03 08:52 56K
20260503T06Z_MSC_RDPS_SWEATIndex_Sfc_RLatLon0.09_PT030H.grib2 2026-05-03 08:52 2.6M
20260503T06Z_MSC_RDPS_SeeingIndex_EAtm_RLatLon0.09_PT030H.grib2 2026-05-03 08:52 1.1M
20260503T06Z_MSC_RDPS_SensibleHeatNetFlux_Sfc_RLatLon0.09_PT030H.grib2 2026-05-03 08:52 312K
20260503T06Z_MSC_RDPS_ShowalterIndex_IsbL-0500_RLatLon0.09_PT030H.grib2 2026-05-03 08:52 2.6M
20260503T06Z_MSC_RDPS_SkyTransparencyIndex_EAtm_RLatLon0.09_PT030H.grib2 2026-05-03 08:52 719K
20260503T06Z_MSC_RDPS_Snow-Accum12h_Sfc_RLatLon0.09_PT030H.grib2 2026-05-03 08:52 606K
20260503T06Z_MSC_RDPS_Snow-Accum1h_Sfc_RLatLon0.09_PT030H.grib2 2026-05-03 08:52 542K
20260503T06Z_MSC_RDPS_Snow-Accum24h_Sfc_RLatLon0.09_PT030H.grib2 2026-05-03 08:52 650K
20260503T06Z_MSC_RDPS_Snow-Accum3h_Sfc_RLatLon0.09_PT030H.grib2 2026-05-03 08:52 498K
20260503T06Z_MSC_RDPS_Snow-Accum6h_Sfc_RLatLon0.09_PT030H.grib2 2026-05-03 08:52 599K
20260503T06Z_MSC_RDPS_Snow-Accum_Sfc_RLatLon0.09_PT030H.grib2 2026-05-03 08:52 720K
20260503T06Z_MSC_RDPS_SnowDensity_Sfc_RLatLon0.09_PT030H.grib2 2026-05-03 08:52 170K
20260503T06Z_MSC_RDPS_SnowDepth_Sfc_RLatLon0.09_PT030H.grib2 2026-05-03 08:52 651K
20260503T06Z_MSC_RDPS_SoilTemp_DBS-0to10cm_RLatLon0.09_PT030H.grib2 2026-05-03 08:52 228K
20260503T06Z_MSC_RDPS_SoilTemp_Sfc_RLatLon0.09_PT030H.grib2 2026-05-03 08:52 271K
20260503T06Z_MSC_RDPS_SoilVolumetricIceContent_Sfc_RLatLon0.09_PT030H.grib2 2026-05-03 08:52 155K
20260503T06Z_MSC_RDPS_SoilVolumetricWaterContent_DBS-0to10cm_RLatLon0.09_PT030H.grib2 2026-05-03 08:52 274K
20260503T06Z_MSC_RDPS_SoilVolumetricWaterContent_DBS-0to1cm_RLatLon0.09_PT030H.grib2 2026-05-03 08:52 339K
20260503T06Z_MSC_RDPS_SpecificHumidity_AGL-120m_RLatLon0.09_PT030H.grib2 2026-05-03 08:52 496K
20260503T06Z_MSC_RDPS_SpecificHumidity_AGL-2m_RLatLon0.09_PT030H.grib2 2026-05-03 08:52 666K
20260503T06Z_MSC_RDPS_SpecificHumidity_AGL-40m_RLatLon0.09_PT030H.grib2 2026-05-03 08:52 503K
20260503T06Z_MSC_RDPS_SpecificHumidity_AGL-80m_RLatLon0.09_PT030H.grib2 2026-05-03 08:52 498K
20260503T06Z_MSC_RDPS_SpecificHumidity_IsbL-0001_RLatLon0.09_PT030H.grib2 2026-05-03 08:52 396K
20260503T06Z_MSC_RDPS_SpecificHumidity_IsbL-0005_RLatLon0.09_PT030H.grib2 2026-05-03 08:52 372K
20260503T06Z_MSC_RDPS_SpecificHumidity_IsbL-0010_RLatLon0.09_PT030H.grib2 2026-05-03 08:52 403K
20260503T06Z_MSC_RDPS_SpecificHumidity_IsbL-0020_RLatLon0.09_PT030H.grib2 2026-05-03 08:52 382K
20260503T06Z_MSC_RDPS_SpecificHumidity_IsbL-0030_RLatLon0.09_PT030H.grib2 2026-05-03 08:52 377K
20260503T06Z_MSC_RDPS_SpecificHumidity_IsbL-0050_RLatLon0.09_PT030H.grib2 2026-05-03 08:52 489K
20260503T06Z_MSC_RDPS_SpecificHumidity_IsbL-0100_RLatLon0.09_PT030H.grib2 2026-05-03 08:52 541K
20260503T06Z_MSC_RDPS_SpecificHumidity_IsbL-0150_RLatLon0.09_PT030H.grib2 2026-05-03 08:52 448K
20260503T06Z_MSC_RDPS_SpecificHumidity_IsbL-0175_RLatLon0.09_PT030H.grib2 2026-05-03 08:52 434K
20260503T06Z_MSC_RDPS_SpecificHumidity_IsbL-0200_RLatLon0.09_PT030H.grib2 2026-05-03 08:52 456K
20260503T06Z_MSC_RDPS_SpecificHumidity_IsbL-0225_RLatLon0.09_PT030H.grib2 2026-05-03 08:52 464K
20260503T06Z_MSC_RDPS_SpecificHumidity_IsbL-0250_RLatLon0.09_PT030H.grib2 2026-05-03 08:52 572K
20260503T06Z_MSC_RDPS_SpecificHumidity_IsbL-0275_RLatLon0.09_PT030H.grib2 2026-05-03 08:52 488K
20260503T06Z_MSC_RDPS_SpecificHumidity_IsbL-0300_RLatLon0.09_PT030H.grib2 2026-05-03 08:52 559K
20260503T06Z_MSC_RDPS_SpecificHumidity_IsbL-0350_RLatLon0.09_PT030H.grib2 2026-05-03 08:52 556K
20260503T06Z_MSC_RDPS_SpecificHumidity_IsbL-0400_RLatLon0.09_PT030H.grib2 2026-05-03 08:52 531K
20260503T06Z_MSC_RDPS_SpecificHumidity_IsbL-0450_RLatLon0.09_PT030H.grib2 2026-05-03 08:52 577K
20260503T06Z_MSC_RDPS_SpecificHumidity_IsbL-0500_RLatLon0.09_PT030H.grib2 2026-05-03 08:52 511K
20260503T06Z_MSC_RDPS_SpecificHumidity_IsbL-0550_RLatLon0.09_PT030H.grib2 2026-05-03 08:52 564K
20260503T06Z_MSC_RDPS_SpecificHumidity_IsbL-0600_RLatLon0.09_PT030H.grib2 2026-05-03 08:52 633K
20260503T06Z_MSC_RDPS_SpecificHumidity_IsbL-0650_RLatLon0.09_PT030H.grib2 2026-05-03 08:52 551K
20260503T06Z_MSC_RDPS_SpecificHumidity_IsbL-0700_RLatLon0.09_PT030H.grib2 2026-05-03 08:52 591K
20260503T06Z_MSC_RDPS_SpecificHumidity_IsbL-0750_RLatLon0.09_PT030H.grib2 2026-05-03 08:52 645K
20260503T06Z_MSC_RDPS_SpecificHumidity_IsbL-0800_RLatLon0.09_PT030H.grib2 2026-05-03 08:52 724K
20260503T06Z_MSC_RDPS_SpecificHumidity_IsbL-0850_RLatLon0.09_PT030H.grib2 2026-05-03 08:52 814K
20260503T06Z_MSC_RDPS_SpecificHumidity_IsbL-0875_RLatLon0.09_PT030H.grib2 2026-05-03 08:52 837K
20260503T06Z_MSC_RDPS_SpecificHumidity_IsbL-0900_RLatLon0.09_PT030H.grib2 2026-05-03 08:52 843K
20260503T06Z_MSC_RDPS_SpecificHumidity_IsbL-0925_RLatLon0.09_PT030H.grib2 2026-05-03 08:52 841K
20260503T06Z_MSC_RDPS_SpecificHumidity_IsbL-0950_RLatLon0.09_PT030H.grib2 2026-05-03 08:52 704K
20260503T06Z_MSC_RDPS_SpecificHumidity_IsbL-0970_RLatLon0.09_PT030H.grib2 2026-05-03 08:52 699K
20260503T06Z_MSC_RDPS_SpecificHumidity_IsbL-0985_RLatLon0.09_PT030H.grib2 2026-05-03 08:52 692K
20260503T06Z_MSC_RDPS_SpecificHumidity_IsbL-1000_RLatLon0.09_PT030H.grib2 2026-05-03 08:52 688K
20260503T06Z_MSC_RDPS_SpecificHumidity_IsbL-1015_RLatLon0.09_PT030H.grib2 2026-05-03 08:52 679K
20260503T06Z_MSC_RDPS_SpecificHumidity_Sfc_RLatLon0.09_PT030H.grib2 2026-05-03 08:52 297K
20260503T06Z_MSC_RDPS_StormRelativeHelicity_EtaL-10000_RLatLon0.09_PT030H.grib2 2026-05-03 08:52 1.1M
20260503T06Z_MSC_RDPS_StormSeverityIndex_EtaL-10000_RLatLon0.09_PT030H.grib2 2026-05-03 08:52 1.1M
20260503T06Z_MSC_RDPS_Thickness_IsbL-0850to0700_RLatLon0.09_PT030H.grib2 2026-05-03 08:52 251K
20260503T06Z_MSC_RDPS_Thickness_IsbL-1000to0500_RLatLon0.09_PT030H.grib2 2026-05-03 08:52 198K
20260503T06Z_MSC_RDPS_Thickness_IsbL-1000to0850_RLatLon0.09_PT030H.grib2 2026-05-03 08:52 264K
20260503T06Z_MSC_RDPS_TotalCloudCover_Sfc_RLatLon0.09_PT030H.grib2 2026-05-03 08:52 678K
20260503T06Z_MSC_RDPS_TotalTotalsIndex_Sfc_RLatLon0.09_PT030H.grib2 2026-05-03 08:52 2.4M
20260503T06Z_MSC_RDPS_UVIndex-ClearSky_Sfc_RLatLon0.09_PT030H.grib2 2026-05-03 08:52 144K
20260503T06Z_MSC_RDPS_UVIndex_Sfc_RLatLon0.09_PT030H.grib2 2026-05-03 08:52 353K
20260503T06Z_MSC_RDPS_UpwardLongwaveRadiationFlux_NTAtm_RLatLon0.09_PT030H.grib2 2026-05-03 08:52 496K
20260503T06Z_MSC_RDPS_UpwardShortwaveRadiationFlux_NTAtm_RLatLon0.09_PT030H.grib2 2026-05-03 08:52 315K
20260503T06Z_MSC_RDPS_VerticalVelocity_IsbL-0250_RLatLon0.09_PT030H.grib2 2026-05-03 08:52 444K
20260503T06Z_MSC_RDPS_VerticalVelocity_IsbL-0500_RLatLon0.09_PT030H.grib2 2026-05-03 08:52 697K
20260503T06Z_MSC_RDPS_VerticalVelocity_IsbL-0700_RLatLon0.09_PT030H.grib2 2026-05-03 08:52 633K
20260503T06Z_MSC_RDPS_VerticalVelocity_IsbL-0850_RLatLon0.09_PT030H.grib2 2026-05-03 08:52 717K
20260503T06Z_MSC_RDPS_VerticalWindShear_EtaL-6500_RLatLon0.09_PT030H.grib2 2026-05-03 08:52 1.2M
20260503T06Z_MSC_RDPS_WindChill_Sfc_RLatLon0.09_PT030H.grib2 2026-05-03 08:52 1.2M
20260503T06Z_MSC_RDPS_WindDir_AGL-10m_RLatLon0.09_PT030H.grib2 2026-05-03 08:52 1.0M
20260503T06Z_MSC_RDPS_WindDir_AGL-120m_RLatLon0.09_PT030H.grib2 2026-05-03 08:52 622K
20260503T06Z_MSC_RDPS_WindDir_AGL-40m_RLatLon0.09_PT030H.grib2 2026-05-03 08:52 656K
20260503T06Z_MSC_RDPS_WindDir_AGL-80m_RLatLon0.09_PT030H.grib2 2026-05-03 08:52 636K
20260503T06Z_MSC_RDPS_WindDir_IsbL-0001_RLatLon0.09_PT030H.grib2 2026-05-03 08:52 310K
20260503T06Z_MSC_RDPS_WindDir_IsbL-0005_RLatLon0.09_PT030H.grib2 2026-05-03 08:52 381K
20260503T06Z_MSC_RDPS_WindDir_IsbL-0010_RLatLon0.09_PT030H.grib2 2026-05-03 08:52 395K
20260503T06Z_MSC_RDPS_WindDir_IsbL-0020_RLatLon0.09_PT030H.grib2 2026-05-03 08:52 424K
20260503T06Z_MSC_RDPS_WindDir_IsbL-0030_RLatLon0.09_PT030H.grib2 2026-05-03 08:52 426K
20260503T06Z_MSC_RDPS_WindDir_IsbL-0050_RLatLon0.09_PT030H.grib2 2026-05-03 08:52 425K
20260503T06Z_MSC_RDPS_WindDir_IsbL-0100_RLatLon0.09_PT030H.grib2 2026-05-03 08:52 411K
20260503T06Z_MSC_RDPS_WindDir_IsbL-0150_RLatLon0.09_PT030H.grib2 2026-05-03 08:52 425K
20260503T06Z_MSC_RDPS_WindDir_IsbL-0175_RLatLon0.09_PT030H.grib2 2026-05-03 08:52 440K
20260503T06Z_MSC_RDPS_WindDir_IsbL-0200_RLatLon0.09_PT030H.grib2 2026-05-03 08:52 454K
20260503T06Z_MSC_RDPS_WindDir_IsbL-0225_RLatLon0.09_PT030H.grib2 2026-05-03 08:52 456K
20260503T06Z_MSC_RDPS_WindDir_IsbL-0250_RLatLon0.09_PT030H.grib2 2026-05-03 08:52 455K
20260503T06Z_MSC_RDPS_WindDir_IsbL-0275_RLatLon0.09_PT030H.grib2 2026-05-03 08:52 474K
20260503T06Z_MSC_RDPS_WindDir_IsbL-0300_RLatLon0.09_PT030H.grib2 2026-05-03 08:52 470K
20260503T06Z_MSC_RDPS_WindDir_IsbL-0350_RLatLon0.09_PT030H.grib2 2026-05-03 08:52 495K
20260503T06Z_MSC_RDPS_WindDir_IsbL-0400_RLatLon0.09_PT030H.grib2 2026-05-03 08:52 520K
20260503T06Z_MSC_RDPS_WindDir_IsbL-0450_RLatLon0.09_PT030H.grib2 2026-05-03 08:52 530K
20260503T06Z_MSC_RDPS_WindDir_IsbL-0500_RLatLon0.09_PT030H.grib2 2026-05-03 08:52 537K
20260503T06Z_MSC_RDPS_WindDir_IsbL-0550_RLatLon0.09_PT030H.grib2 2026-05-03 08:52 551K
20260503T06Z_MSC_RDPS_WindDir_IsbL-0600_RLatLon0.09_PT030H.grib2 2026-05-03 08:52 575K
20260503T06Z_MSC_RDPS_WindDir_IsbL-0650_RLatLon0.09_PT030H.grib2 2026-05-03 08:52 612K
20260503T06Z_MSC_RDPS_WindDir_IsbL-0700_RLatLon0.09_PT030H.grib2 2026-05-03 08:52 656K
20260503T06Z_MSC_RDPS_WindDir_IsbL-0750_RLatLon0.09_PT030H.grib2 2026-05-03 08:52 705K
20260503T06Z_MSC_RDPS_WindDir_IsbL-0800_RLatLon0.09_PT030H.grib2 2026-05-03 08:52 783K
20260503T06Z_MSC_RDPS_WindDir_IsbL-0850_RLatLon0.09_PT030H.grib2 2026-05-03 08:52 874K
20260503T06Z_MSC_RDPS_WindDir_IsbL-0875_RLatLon0.09_PT030H.grib2 2026-05-03 08:52 907K
20260503T06Z_MSC_RDPS_WindDir_IsbL-0900_RLatLon0.09_PT030H.grib2 2026-05-03 08:52 919K
20260503T06Z_MSC_RDPS_WindDir_IsbL-0925_RLatLon0.09_PT030H.grib2 2026-05-03 08:52 928K
20260503T06Z_MSC_RDPS_WindDir_IsbL-0950_RLatLon0.09_PT030H.grib2 2026-05-03 08:52 928K
20260503T06Z_MSC_RDPS_WindDir_IsbL-0970_RLatLon0.09_PT030H.grib2 2026-05-03 08:52 934K
20260503T06Z_MSC_RDPS_WindDir_IsbL-0985_RLatLon0.09_PT030H.grib2 2026-05-03 08:52 946K
20260503T06Z_MSC_RDPS_WindDir_IsbL-1000_RLatLon0.09_PT030H.grib2 2026-05-03 08:52 966K
20260503T06Z_MSC_RDPS_WindDir_IsbL-1015_RLatLon0.09_PT030H.grib2 2026-05-03 08:52 1.0M
20260503T06Z_MSC_RDPS_WindGust-Max_AGL-10m_RLatLon0.09_PT030H.grib2 2026-05-03 08:52 1.0M
20260503T06Z_MSC_RDPS_WindGust-Min_AGL-10m_RLatLon0.09_PT030H.grib2 2026-05-03 08:52 1.0M
20260503T06Z_MSC_RDPS_WindGust_AGL-10m_RLatLon0.09_PT030H.grib2 2026-05-03 08:52 1.0M
20260503T06Z_MSC_RDPS_WindSpeed_AGL-10m_RLatLon0.09_PT030H.grib2 2026-05-03 08:52 860K
20260503T06Z_MSC_RDPS_WindSpeed_AGL-120m_RLatLon0.09_PT030H.grib2 2026-05-03 08:52 556K
20260503T06Z_MSC_RDPS_WindSpeed_AGL-40m_RLatLon0.09_PT030H.grib2 2026-05-03 08:52 690K
20260503T06Z_MSC_RDPS_WindSpeed_AGL-80m_RLatLon0.09_PT030H.grib2 2026-05-03 08:52 557K
20260503T06Z_MSC_RDPS_WindSpeed_IsbL-0001_RLatLon0.09_PT030H.grib2 2026-05-03 08:52 255K
20260503T06Z_MSC_RDPS_WindSpeed_IsbL-0005_RLatLon0.09_PT030H.grib2 2026-05-03 08:52 384K
20260503T06Z_MSC_RDPS_WindSpeed_IsbL-0010_RLatLon0.09_PT030H.grib2 2026-05-03 08:52 368K
20260503T06Z_MSC_RDPS_WindSpeed_IsbL-0020_RLatLon0.09_PT030H.grib2 2026-05-03 08:52 423K
20260503T06Z_MSC_RDPS_WindSpeed_IsbL-0030_RLatLon0.09_PT030H.grib2 2026-05-03 08:52 325K
20260503T06Z_MSC_RDPS_WindSpeed_IsbL-0050_RLatLon0.09_PT030H.grib2 2026-05-03 08:52 355K
20260503T06Z_MSC_RDPS_WindSpeed_IsbL-0100_RLatLon0.09_PT030H.grib2 2026-05-03 08:52 487K
20260503T06Z_MSC_RDPS_WindSpeed_IsbL-0150_RLatLon0.09_PT030H.grib2 2026-05-03 08:52 388K
20260503T06Z_MSC_RDPS_WindSpeed_IsbL-0175_RLatLon0.09_PT030H.grib2 2026-05-03 08:52 432K
20260503T06Z_MSC_RDPS_WindSpeed_IsbL-0200_RLatLon0.09_PT030H.grib2 2026-05-03 08:52 444K
20260503T06Z_MSC_RDPS_WindSpeed_IsbL-0225_RLatLon0.09_PT030H.grib2 2026-05-03 08:52 452K
20260503T06Z_MSC_RDPS_WindSpeed_IsbL-0250_RLatLon0.09_PT030H.grib2 2026-05-03 08:52 456K
20260503T06Z_MSC_RDPS_WindSpeed_IsbL-0275_RLatLon0.09_PT030H.grib2 2026-05-03 08:52 474K
20260503T06Z_MSC_RDPS_WindSpeed_IsbL-0300_RLatLon0.09_PT030H.grib2 2026-05-03 08:52 472K
20260503T06Z_MSC_RDPS_WindSpeed_IsbL-0350_RLatLon0.09_PT030H.grib2 2026-05-03 08:52 483K
20260503T06Z_MSC_RDPS_WindSpeed_IsbL-0400_RLatLon0.09_PT030H.grib2 2026-05-03 08:52 472K
20260503T06Z_MSC_RDPS_WindSpeed_IsbL-0450_RLatLon0.09_PT030H.grib2 2026-05-03 08:52 475K
20260503T06Z_MSC_RDPS_WindSpeed_IsbL-0500_RLatLon0.09_PT030H.grib2 2026-05-03 08:52 474K
20260503T06Z_MSC_RDPS_WindSpeed_IsbL-0550_RLatLon0.09_PT030H.grib2 2026-05-03 08:52 589K
20260503T06Z_MSC_RDPS_WindSpeed_IsbL-0600_RLatLon0.09_PT030H.grib2 2026-05-03 08:52 598K
20260503T06Z_MSC_RDPS_WindSpeed_IsbL-0650_RLatLon0.09_PT030H.grib2 2026-05-03 08:52 618K
20260503T06Z_MSC_RDPS_WindSpeed_IsbL-0700_RLatLon0.09_PT030H.grib2 2026-05-03 08:52 641K
20260503T06Z_MSC_RDPS_WindSpeed_IsbL-0750_RLatLon0.09_PT030H.grib2 2026-05-03 08:52 672K
20260503T06Z_MSC_RDPS_WindSpeed_IsbL-0800_RLatLon0.09_PT030H.grib2 2026-05-03 08:52 725K
20260503T06Z_MSC_RDPS_WindSpeed_IsbL-0850_RLatLon0.09_PT030H.grib2 2026-05-03 08:52 836K
20260503T06Z_MSC_RDPS_WindSpeed_IsbL-0875_RLatLon0.09_PT030H.grib2 2026-05-03 08:52 858K
20260503T06Z_MSC_RDPS_WindSpeed_IsbL-0900_RLatLon0.09_PT030H.grib2 2026-05-03 08:52 870K
20260503T06Z_MSC_RDPS_WindSpeed_IsbL-0925_RLatLon0.09_PT030H.grib2 2026-05-03 08:52 882K
20260503T06Z_MSC_RDPS_WindSpeed_IsbL-0950_RLatLon0.09_PT030H.grib2 2026-05-03 08:52 878K
20260503T06Z_MSC_RDPS_WindSpeed_IsbL-0970_RLatLon0.09_PT030H.grib2 2026-05-03 08:52 876K
20260503T06Z_MSC_RDPS_WindSpeed_IsbL-0985_RLatLon0.09_PT030H.grib2 2026-05-03 08:52 872K
20260503T06Z_MSC_RDPS_WindSpeed_IsbL-1000_RLatLon0.09_PT030H.grib2 2026-05-03 08:52 867K
20260503T06Z_MSC_RDPS_WindSpeed_IsbL-1015_RLatLon0.09_PT030H.grib2 2026-05-03 08:52 859K
20260503T06Z_MSC_RDPS_WindU_AGL-10m_RLatLon0.09_PT030H.grib2 2026-05-03 08:52 441K
20260503T06Z_MSC_RDPS_WindU_AGL-120m_RLatLon0.09_PT030H.grib2 2026-05-03 08:52 549K
20260503T06Z_MSC_RDPS_WindU_AGL-40m_RLatLon0.09_PT030H.grib2 2026-05-03 08:52 551K
20260503T06Z_MSC_RDPS_WindU_AGL-80m_RLatLon0.09_PT030H.grib2 2026-05-03 08:52 550K
20260503T06Z_MSC_RDPS_WindU_IsbL-0001_RLatLon0.09_PT030H.grib2 2026-05-03 08:52 295K
20260503T06Z_MSC_RDPS_WindU_IsbL-0005_RLatLon0.09_PT030H.grib2 2026-05-03 08:52 284K
20260503T06Z_MSC_RDPS_WindU_IsbL-0010_RLatLon0.09_PT030H.grib2 2026-05-03 08:52 298K
20260503T06Z_MSC_RDPS_WindU_IsbL-0020_RLatLon0.09_PT030H.grib2 2026-05-03 08:52 356K
20260503T06Z_MSC_RDPS_WindU_IsbL-0030_RLatLon0.09_PT030H.grib2 2026-05-03 08:52 356K
20260503T06Z_MSC_RDPS_WindU_IsbL-0050_RLatLon0.09_PT030H.grib2 2026-05-03 08:52 384K
20260503T06Z_MSC_RDPS_WindU_IsbL-0100_RLatLon0.09_PT030H.grib2 2026-05-03 08:52 440K
20260503T06Z_MSC_RDPS_WindU_IsbL-0150_RLatLon0.09_PT030H.grib2 2026-05-03 08:52 402K
20260503T06Z_MSC_RDPS_WindU_IsbL-0175_RLatLon0.09_PT030H.grib2 2026-05-03 08:52 425K
20260503T06Z_MSC_RDPS_WindU_IsbL-0200_RLatLon0.09_PT030H.grib2 2026-05-03 08:52 340K
20260503T06Z_MSC_RDPS_WindU_IsbL-0225_RLatLon0.09_PT030H.grib2 2026-05-03 08:52 344K
20260503T06Z_MSC_RDPS_WindU_IsbL-0250_RLatLon0.09_PT030H.grib2 2026-05-03 08:52 345K
20260503T06Z_MSC_RDPS_WindU_IsbL-0275_RLatLon0.09_PT030H.grib2 2026-05-03 08:52 361K
20260503T06Z_MSC_RDPS_WindU_IsbL-0300_RLatLon0.09_PT030H.grib2 2026-05-03 08:52 357K
20260503T06Z_MSC_RDPS_WindU_IsbL-0350_RLatLon0.09_PT030H.grib2 2026-05-03 08:52 472K
20260503T06Z_MSC_RDPS_WindU_IsbL-0400_RLatLon0.09_PT030H.grib2 2026-05-03 08:52 478K
20260503T06Z_MSC_RDPS_WindU_IsbL-0450_RLatLon0.09_PT030H.grib2 2026-05-03 08:52 479K
20260503T06Z_MSC_RDPS_WindU_IsbL-0500_RLatLon0.09_PT030H.grib2 2026-05-03 08:52 479K
20260503T06Z_MSC_RDPS_WindU_IsbL-0550_RLatLon0.09_PT030H.grib2 2026-05-03 08:52 477K
20260503T06Z_MSC_RDPS_WindU_IsbL-0600_RLatLon0.09_PT030H.grib2 2026-05-03 08:52 485K
20260503T06Z_MSC_RDPS_WindU_IsbL-0650_RLatLon0.09_PT030H.grib2 2026-05-03 08:52 487K
20260503T06Z_MSC_RDPS_WindU_IsbL-0700_RLatLon0.09_PT030H.grib2 2026-05-03 08:52 508K
20260503T06Z_MSC_RDPS_WindU_IsbL-0750_RLatLon0.09_PT030H.grib2 2026-05-03 08:52 536K
20260503T06Z_MSC_RDPS_WindU_IsbL-0800_RLatLon0.09_PT030H.grib2 2026-05-03 08:52 583K
20260503T06Z_MSC_RDPS_WindU_IsbL-0850_RLatLon0.09_PT030H.grib2 2026-05-03 08:52 643K
20260503T06Z_MSC_RDPS_WindU_IsbL-0875_RLatLon0.09_PT030H.grib2 2026-05-03 08:52 662K
20260503T06Z_MSC_RDPS_WindU_IsbL-0900_RLatLon0.09_PT030H.grib2 2026-05-03 08:52 669K
20260503T06Z_MSC_RDPS_WindU_IsbL-0925_RLatLon0.09_PT030H.grib2 2026-05-03 08:52 676K
20260503T06Z_MSC_RDPS_WindU_IsbL-0950_RLatLon0.09_PT030H.grib2 2026-05-03 08:52 671K
20260503T06Z_MSC_RDPS_WindU_IsbL-0970_RLatLon0.09_PT030H.grib2 2026-05-03 08:52 808K
20260503T06Z_MSC_RDPS_WindU_IsbL-0985_RLatLon0.09_PT030H.grib2 2026-05-03 08:52 804K
20260503T06Z_MSC_RDPS_WindU_IsbL-1000_RLatLon0.09_PT030H.grib2 2026-05-03 08:52 801K
20260503T06Z_MSC_RDPS_WindU_IsbL-1015_RLatLon0.09_PT030H.grib2 2026-05-03 08:52 842K
20260503T06Z_MSC_RDPS_WindV_AGL-10m_RLatLon0.09_PT030H.grib2 2026-05-03 08:52 444K
20260503T06Z_MSC_RDPS_WindV_AGL-120m_RLatLon0.09_PT030H.grib2 2026-05-03 08:52 430K
20260503T06Z_MSC_RDPS_WindV_AGL-40m_RLatLon0.09_PT030H.grib2 2026-05-03 08:52 553K
20260503T06Z_MSC_RDPS_WindV_AGL-80m_RLatLon0.09_PT030H.grib2 2026-05-03 08:52 551K
20260503T06Z_MSC_RDPS_WindV_IsbL-0001_RLatLon0.09_PT030H.grib2 2026-05-03 08:52 248K
20260503T06Z_MSC_RDPS_WindV_IsbL-0005_RLatLon0.09_PT030H.grib2 2026-05-03 08:52 287K
20260503T06Z_MSC_RDPS_WindV_IsbL-0010_RLatLon0.09_PT030H.grib2 2026-05-03 08:52 299K
20260503T06Z_MSC_RDPS_WindV_IsbL-0020_RLatLon0.09_PT030H.grib2 2026-05-03 08:52 318K
20260503T06Z_MSC_RDPS_WindV_IsbL-0030_RLatLon0.09_PT030H.grib2 2026-05-03 08:52 317K
20260503T06Z_MSC_RDPS_WindV_IsbL-0050_RLatLon0.09_PT030H.grib2 2026-05-03 08:52 348K
20260503T06Z_MSC_RDPS_WindV_IsbL-0100_RLatLon0.09_PT030H.grib2 2026-05-03 08:52 341K
20260503T06Z_MSC_RDPS_WindV_IsbL-0150_RLatLon0.09_PT030H.grib2 2026-05-03 08:52 402K
20260503T06Z_MSC_RDPS_WindV_IsbL-0175_RLatLon0.09_PT030H.grib2 2026-05-03 08:52 327K
20260503T06Z_MSC_RDPS_WindV_IsbL-0200_RLatLon0.09_PT030H.grib2 2026-05-03 08:52 338K
20260503T06Z_MSC_RDPS_WindV_IsbL-0225_RLatLon0.09_PT030H.grib2 2026-05-03 08:52 369K
20260503T06Z_MSC_RDPS_WindV_IsbL-0250_RLatLon0.09_PT030H.grib2 2026-05-03 08:52 370K
20260503T06Z_MSC_RDPS_WindV_IsbL-0275_RLatLon0.09_PT030H.grib2 2026-05-03 08:52 384K
20260503T06Z_MSC_RDPS_WindV_IsbL-0300_RLatLon0.09_PT030H.grib2 2026-05-03 08:52 381K
20260503T06Z_MSC_RDPS_WindV_IsbL-0350_RLatLon0.09_PT030H.grib2 2026-05-03 08:52 388K
20260503T06Z_MSC_RDPS_WindV_IsbL-0400_RLatLon0.09_PT030H.grib2 2026-05-03 08:52 369K
20260503T06Z_MSC_RDPS_WindV_IsbL-0450_RLatLon0.09_PT030H.grib2 2026-05-03 08:52 372K
20260503T06Z_MSC_RDPS_WindV_IsbL-0500_RLatLon0.09_PT030H.grib2 2026-05-03 08:52 476K
20260503T06Z_MSC_RDPS_WindV_IsbL-0550_RLatLon0.09_PT030H.grib2 2026-05-03 08:52 474K
20260503T06Z_MSC_RDPS_WindV_IsbL-0600_RLatLon0.09_PT030H.grib2 2026-05-03 08:52 482K
20260503T06Z_MSC_RDPS_WindV_IsbL-0650_RLatLon0.09_PT030H.grib2 2026-05-03 08:52 498K
20260503T06Z_MSC_RDPS_WindV_IsbL-0700_RLatLon0.09_PT030H.grib2 2026-05-03 08:52 518K
20260503T06Z_MSC_RDPS_WindV_IsbL-0750_RLatLon0.09_PT030H.grib2 2026-05-03 08:52 545K
20260503T06Z_MSC_RDPS_WindV_IsbL-0800_RLatLon0.09_PT030H.grib2 2026-05-03 08:52 590K
20260503T06Z_MSC_RDPS_WindV_IsbL-0850_RLatLon0.09_PT030H.grib2 2026-05-03 08:52 646K
20260503T06Z_MSC_RDPS_WindV_IsbL-0875_RLatLon0.09_PT030H.grib2 2026-05-03 08:52 658K
20260503T06Z_MSC_RDPS_WindV_IsbL-0900_RLatLon0.09_PT030H.grib2 2026-05-03 08:52 667K
20260503T06Z_MSC_RDPS_WindV_IsbL-0925_RLatLon0.09_PT030H.grib2 2026-05-03 08:52 675K
20260503T06Z_MSC_RDPS_WindV_IsbL-0950_RLatLon0.09_PT030H.grib2 2026-05-03 08:52 672K
20260503T06Z_MSC_RDPS_WindV_IsbL-0970_RLatLon0.09_PT030H.grib2 2026-05-03 08:52 669K
20260503T06Z_MSC_RDPS_WindV_IsbL-0985_RLatLon0.09_PT030H.grib2 2026-05-03 08:52 666K
20260503T06Z_MSC_RDPS_WindV_IsbL-1000_RLatLon0.09_PT030H.grib2 2026-05-03 08:52 804K
20260503T06Z_MSC_RDPS_WindV_IsbL-1015_RLatLon0.09_PT030H.grib2 2026-05-03 08:52 797K